Weather History for Moses Lake, WA

Change the Weather History Date:

Wednesday, June 25, 2014

  Actual Average Record
Temperature  
Mean Temperature 68 °F 68 °F  
Max Temperature 84 °F 83 °F 99 °F (2006)
Min Temperature 51 °F 53 °F 42 °F (1985)
Degree Days  
Heating Degree Days 0 1  
Month to date heating degree days 24 48  
Since 1 June heating degree days 24 48  
Since 1 July heating degree days 5651 5875  
Cooling Degree Days 3 4  
Month to date cooling degree days 92 62  
Year to date cooling degree days 127 87  
Since 1 June cooling degree days 92 62  
Growing Degree Days 18 (Base 50)    
Moisture  
Dew Point 44 °F    
Average Humidity 47    
Maximum Humidity 71    
Minimum Humidity 22    
Precipitation  
Precipitation 0.00 in 0.01 in 0.08 in (1999)
Month to date precipitation 0.38 0.69  
Year to date precipitation 3.16 4.71  
Sea Level Pressure  
Sea Level Pressure 29.86 in    
Wind  
Wind Speed 5 mph (WSW)    
Max Wind Speed 12 mph    
Max Gust Speed 14 mph    
Visibility 10 miles    
Events      
T = Trace of Precipitation, MM = Missing Value Source: NWS Daily Summary

Daily Weather History Graph

Daily Weather History Graph

Search for Another Location

Airport:

Trip Planner

Search our weather history database for the weather conditions in past years. The results will help you decide how hot, cold, wet, or windy it might be!

Date:

Astronomy

Jun. 25, 2014 Rise Set
Actual Time 5:02 AM PDT 8:57 PM PDT
Civil Twilight 4:22 AM PDT 9:37 PM PDT
Nautical Twilight 3:27 AM PDT 10:32 PM PDT
Astronomical Twilight 2:02 AM PDT 11:56 PM PDT
Moon 4:04 AM PDT (6/25) 7:27 PM PDT (6/25)
Length of Visible Light 17h 15m
Length of Day
15h 54m
Waning Crescent, 2% of the Moon is Illuminated
Jun 25
Waning Crescent
Jun 27
New
Jul 5
First Quarter
Jul 12
Full
Jul 18
Last Quarter

Hourly Weather History & Observations

Time (PDT) Temp. Dew Point Humidity Pressure Visibility Wind Dir Wind Speed Gust Speed Precip Events Conditions
12:52 AM 63.0 °F 44.1 °F 50% 29.95 in 10.0 mi Calm Calm - N/A   Clear
1:52 AM 60.1 °F 44.1 °F 55% 29.95 in 10.0 mi NW 4.6 mph - N/A   Clear
2:52 AM 59.0 °F 44.1 °F 58% 29.96 in 10.0 mi Calm Calm - N/A   Clear
3:52 AM 55.9 °F 44.1 °F 64% 29.95 in 10.0 mi Calm Calm - N/A   Clear
4:52 AM 53.1 °F 44.1 °F 71% 29.96 in 10.0 mi NNE 3.5 mph - N/A   Clear
5:52 AM 53.1 °F 44.1 °F 71% 29.96 in 10.0 mi North 5.8 mph - N/A   Clear
6:52 AM 57.9 °F 45.0 °F 62% 29.96 in 10.0 mi North 5.8 mph - N/A   Clear
7:52 AM 64.0 °F 48.0 °F 56% 29.96 in 10.0 mi North 3.5 mph - N/A   Clear
8:52 AM 69.8 °F 46.4 °F 43% 29.96 in 10.0 mi North 6.9 mph - N/A   Clear
9:52 AM 73.0 °F 48.0 °F 41% 29.93 in 10.0 mi North 6.9 mph - N/A   Clear
10:52 AM 75.9 °F 46.0 °F 35% 29.91 in 10.0 mi Calm Calm - N/A   Mostly Cloudy
11:52 AM 81.0 °F 45.0 °F 28% 29.89 in 10.0 mi South 6.9 mph - N/A   Clear
12:52 PM 81.0 °F 43.0 °F 26% 29.87 in 10.0 mi Variable 6.9 mph - N/A   Mostly Cloudy
1:52 PM 81.0 °F 41.0 °F 24% 29.86 in 10.0 mi Variable 3.5 mph - N/A   Clear
2:52 PM 82.0 °F 42.1 °F 24% 29.84 in 10.0 mi WSW 5.8 mph - N/A   Mostly Cloudy
3:52 PM 82.0 °F 42.1 °F 24% 29.81 in 10.0 mi Variable 5.8 mph - N/A   Clear
4:52 PM 82.0 °F 39.9 °F 22% 29.79 in 10.0 mi South 8.1 mph - N/A   Clear
5:52 PM 82.0 °F 39.9 °F 22% 29.76 in 10.0 mi SSW 5.8 mph - N/A   Clear
6:52 PM 81.0 °F 41.0 °F 24% 29.75 in 10.0 mi SSW 8.1 mph - N/A   Clear
7:52 PM 80.1 °F 41.0 °F 25% 29.73 in 10.0 mi SW 6.9 mph - N/A   Clear
8:52 PM 78.1 °F 42.1 °F 28% 29.73 in 10.0 mi SSW 9.2 mph - N/A   Partly Cloudy
9:52 PM 75.9 °F 45.0 °F 33% 29.72 in 10.0 mi SSW 5.8 mph - N/A   Partly Cloudy
10:52 PM 73.9 °F 46.9 °F 38% 29.72 in 10.0 mi SSW 9.2 mph - N/A   Clear
11:52 PM 71.6 °F 48.2 °F 43% 29.73 in 10.0 mi SW 8.1 mph - N/A   Clear